Location: Abundant Grace Fellowship
(35.0349°N, 90.0924°W)
Time: 22:30:00
(UTC+00:00)

NOSS 2-2 (C) - Pass Details

Date: 18 January 2026
Orbit: 379 x 1692 km, 63.3° (Epoch: 13 February)

Event Time Altitude Azimuth Distance (km) Brightness Sun altitude
Rises 11:32:07 0° 201° (SSW) 2,928 6.9 -19.3°
Reaches altitude 10° 11:34:43 10° 196° (SSW) 1,839 5.9 -18.7°
Maximum altitude 11:38:34 52° 120° (ESE) 583 3.8 -18.0°
Drops below altitude 10° 11:41:40 10° 43° (NE) 1,482 5.9 -17.3°
Sets 11:43:34 0° 37° (NE) 2,288 6.8 -17.0°
